Vorticity
5 4 7 9 8 4 11 4 1 15 8 11 -3 -5 10 -14 -4 -5 13 17 16 4 6 2 3 4 4 4 5 4 5 5 5 5 5 4 4 4 4 3 3 3 3 3 3 3 3 4 4
5 7 7 7 4 4 18 12 8 7 6 9 13 7 6 4 0 -7 -9 19 10 6 5 3 4 4 3 4 5 5 6 5 5 5 5 5 4 4 4 4 4 4 5 5 5 5 5 5 5
6 6 13 9 14 5 8 8 1 10 7 4 -1 19 14 3 12 6 -10 -3 19 5 4 3 4 5 4 4 5 5 5 5 5 6 6 7 7 7 6 6 6 7 6 6 7 7 7 6 6
7 13 14 11 -0 -3 7 -6 8 4 7 10 3 23 19 5 12 8 0 -8 11 12 1 5 4 5 5 5 4 5 6 6 5 5 6 8 9 11 12 12 11 10 9 9 9 8 7 7 6
8 10 9 5 5 4 8 6 8 -3 8 22 2 13 11 3 12 3 11 -7 1 13 3 4 4 5 4 4 4 5 6 5 5 8 10 10 9 7 7 7 7 7 7 7 7 7 8 8 8
13 7 2 5 8 3 9 2 17 9 9 18 4 3 4 1 7 7 2 0 12 11 6 4 4 4 2 3 4 3 6 6 9 8 7 6 6 7 8 8 8 8 8 8 7 6 5 4 4
11 2 4 9 3 6 11 2 12 20 15 15 12 7 2 3 9 4 2 5 8 12 5 3 4 3 2 3 3 3 8 9 7 5 6 4 5 5 5 5 5 5 5 5 4 5 5 5 5
9 7 7 5 9 11 11 9 -4 9 16 13 11 6 9 6 0 -1 -1 15 9 7 5 6 4 3 2 2 3 3 9 8 5 5 4 4 4 4 5 6 7 6 7 7 6 6 6 6 3
10 5 4 7 6 9 8 7 13 2 12 -3 3 12 8 7 1 8 10 11 9 10 9 3 4 3 2 2 3 4 8 9 5 4 3 3 4 4 5 6 6 7 7 7 7 7 6 3 2
10 8 3 21 6 2 -1 9 -3 1 3 10 10 2 15 5 12 -8 15 1 10 14 9 5 5 4 2 2 3 4 6 7 6 3 3 4 4 4 5 5 5 6 6 6 6 5 4 4 3
15 2 7 5 10 3 5 8 8 8 7 1 11 12 4 -1 12 -4 10 5 8 7 12 6 6 3 2 3 3 4 5 8 6 4 3 3 4 3 3 4 4 4 5 5 6 6 6 5 4
10 11 11 4 2 6 7 5 7 5 -0 2 3 8 11 11 2 3 2 7 9 9 7 7 6 2 2 3 3 4 4 8 6 4 3 3 3 3 3 3 3 4 4 5 6 7 6 4 4
13 9 7 5 4 5 6 5 4 2 7 6 7 14 5 17 18 11 1 0 8 10 9 4 6 4 3 3 4 4 4 6 7 4 2 3 4 4 3 3 3 3 4 5 6 7 6 5 5
-10 2 3 0 6 7 6 6 10 10 20 2 12 7 13 6 13 4 10 3 9 12 8 5 7 5 2 3 3 3 4 5 6 5 3 3 4 3 3 3 3 4 4 4 6 7 6 5 5
11 17 19 17 15 15 19 16 11 1 9 9 5 8 5 16 10 6 8 3 7 10 9 5 5 6 2 3 3 3 6 4 6 6 4 3 3 4 4 3 4 4 4 4 6 7 6 6 6
11 12 7 16 18 9 8 6 3 20 15 15 11 8 5 4 12 6 13 8 4 14 8 9 6 7 4 3 3 3 5 5 5 6 5 4 3 4 3 3 4 4 4 5 6 7 7 7 6
15 -5 4 0 16 11 6 4 24 18 16 15 7 7 5 9 4 8 6 5 5 10 3 9 5 6 6 4 2 2 6 6 4 5 5 4 3 3 3 4 4 4 5 6 7 8 7 6 5
8 16 8 12 12 11 10 6 6 1 8 6 11 21 8 2 6 10 6 9 9 10 10 4 4 6 6 4 2 2 6 6 5 5 5 5 4 4 4 4 5 5 6 7 8 8 7 5 4
5 2 0 4 5 8 -8 13 10 9 7 13 5 10 13 8 12 7 7 12 6 8 11 6 6 2 6 5 3 3 6 8 7 6 6 5 5 4 4 4 5 5 6 7 8 7 6 4 3
8 5 6 8 7 16 16 9 4 2 7 8 11 11 11 10 13 11 6 4 2 6 9 10 6 7 6 7 5 4 6 7 7 7 6 5 5 5 4 5 5 5 7 8 9 7 5 3 7
6 6 4 3 4 0 2 11 19 35 31 24 9 13 9 7 9 11 14 18 11 4 5 4 2 3 4 6 8 5 6 6 6 7 6 5 6 5 5 5 6 7 7 8 8 7 4 6 3
1 13 12 13 6 7 14 7 -10 -21 -6 1 12 20 18 12 18 8 7 9 16 17 13 9 9 7 6 4 6 7 4 6 8 10 9 9 7 6 5 5 5 7 7 8 9 5 5 2 6
6 9 10 17 3 2 11 14 27 37 5 8 19 17 13 8 32 3 24 9 -2 3 6 5 8 9 7 6 7 8 4 5 8 8 8 6 6 6 5 6 7 7 7 9 8 4 4 6 6
11 1 15 6 10 44 16 -12 33 40 47 2 8 12 25 30 5 16 10 15 12 9 11 14 13 9 11 9 2 1 5 5 9 10 9 10 9 8 6 7 6 7 7 8 5 6 3 5 7
22 26 24 27 17 -16 -5 35 -13 -11 -11 -1 15 4 3 8 21 22 18 17 23 22 11 14 18 18 18 8 8 5 4 4 8 9 7 9 9 9 8 7 7 7 7 6 5 4 4 6 6
6 -10 -33 15 28 25 31 15 30 5 21 19 9 12 20 16 2 0 3 -4 8 10 17 16 12 13 20 15 10 9 5 4 6 9 7 11 10 7 6 6 7 7 6 7 6 1 6 8 6
38 9 4 -24 5 21 -19 -41 -5 21 -10 7 18 17 20 10 9 8 2 12 15 20 15 17 19 14 13 18 18 14 9 5 6 10 10 11 10 8 7 6 6 7 3 9 5 5 4 7 5
6 5 31 9 13 9 21 26 18 28 0 -0 13 23 5 21 17 12 11 9 13 9 3 -0 2 5 16 23 17 17 11 8 7 9 9 10 9 9 9 7 7 3 8 7 5 2 8 7 6
16 -1 8 11 12 22 30 40 72 -7 -11 10 -3 3 4 8 11 2 7 7 12 20 17 21 15 11 9 6 23 15 12 8 6 8 9 8 6 9 8 8 4 6 11 5 5 3 7 7 6
23 4 18 23 -23 9 9 24 -1 -37 -15 4 -3 3 3 5 1 8 8 6 4 7 4 5 15 23 16 21 15 18 14 11 6 8 9 7 9 7 6 -0 9 10 5 6 0 5 5 7 8
Height
3155 3156 3156 3157 3164 3157 3154 3155 3155 3155 3155 3154 3155 3157 3160 3163 3161 3165 3159 3159 3160 3161 3162 3163 3165 3165 3165 3166 3167 3168 3169 3170 3170 3171 3171 3171 3171 3170 3170 3169 3169 3169 3169 3169 3169 3168 3168 3167 3167
3153 3154 3155 3155 3158 3153 3149 3152 3152 3154 3153 3151 3152 3153 3156 3156 3155 3156 3158 3158 3158 3160 3161 3163 3164 3164 3165 3165 3166 3167 3168 3169 3169 3169 3170 3170 3169 3169 3168 3168 3168 3168 3168 3167 3167 3166 3166 3165 3165
3152 3152 3155 3155 3153 3151 3149 3150 3151 3149 3149 3149 3150 3151 3153 3151 3152 3153 3156 3158 3158 3158 3159 3162 3164 3164 3164 3165 3166 3166 3167 3167 3167 3168 3168 3169 3168 3168 3168 3168 3167 3167 3166 3165 3164 3164 3164 3164 3163
3151 3151 3152 3151 3149 3149 3149 3149 3146 3147 3147 3147 3147 3148 3148 3148 3149 3152 3155 3155 3156 3157 3159 3161 3163 3164 3164 3165 3166 3165 3166 3166 3166 3167 3167 3168 3167 3167 3167 3166 3165 3165 3164 3163 3163 3163 3162 3162 3161
3149 3149 3151 3148 3146 3146 3145 3145 3144 3144 3143 3144 3144 3145 3143 3145 3147 3150 3152 3154 3155 3157 3157 3160 3162 3163 3164 3164 3164 3164 3164 3165 3165 3165 3165 3165 3166 3165 3165 3165 3164 3163 3162 3162 3162 3161 3161 3160 3160
3149 3147 3147 3144 3143 3143 3142 3141 3141 3142 3140 3141 3140 3141 3142 3143 3146 3149 3150 3152 3153 3154 3156 3158 3160 3162 3163 3163 3163 3163 3163 3163 3163 3163 3163 3163 3164 3164 3163 3163 3162 3162 3161 3161 3160 3160 3160 3159 3159
3145 3146 3143 3142 3141 3141 3141 3137 3138 3138 3137 3137 3138 3140 3140 3141 3144 3147 3148 3149 3150 3151 3154 3156 3158 3160 3161 3161 3161 3161 3162 3161 3161 3162 3162 3162 3162 3162 3162 3161 3160 3160 3159 3159 3159 3158 3158 3157 3157
3143 3142 3139 3138 3138 3138 3137 3135 3135 3135 3136 3134 3136 3137 3138 3140 3142 3144 3146 3146 3147 3148 3151 3153 3155 3157 3158 3158 3159 3159 3160 3160 3159 3160 3161 3161 3160 3160 3160 3160 3159 3159 3158 3158 3157 3156 3155 3155 3155
3137 3139 3135 3135 3136 3135 3133 3132 3131 3132 3132 3131 3132 3133 3134 3137 3139 3141 3142 3144 3144 3145 3148 3151 3153 3154 3155 3155 3156 3157 3156 3158 3157 3157 3158 3159 3158 3159 3158 3158 3157 3157 3156 3155 3155 3154 3153 3153 3152
3133 3133 3132 3131 3131 3131 3130 3129 3129 3129 3129 3130 3130 3130 3130 3133 3135 3138 3139 3141 3141 3142 3144 3147 3149 3151 3152 3153 3153 3154 3153 3154 3156 3155 3154 3155 3156 3156 3156 3155 3155 3154 3153 3152 3152 3151 3151 3150 3149
3129 3127 3128 3125 3125 3125 3125 3125 3126 3124 3126 3127 3127 3127 3127 3129 3131 3133 3136 3137 3138 3139 3141 3143 3145 3147 3148 3149 3150 3150 3151 3151 3151 3153 3152 3151 3152 3153 3153 3153 3152 3151 3150 3149 3149 3148 3148 3147 3146
3123 3123 3120 3121 3120 3118 3119 3121 3118 3119 3120 3121 3121 3120 3120 3122 3125 3128 3131 3132 3133 3134 3136 3139 3141 3143 3144 3145 3146 3146 3146 3147 3147 3148 3149 3149 3149 3149 3150 3150 3149 3148 3146 3145 3144 3144 3144 3144 3143
3117 3117 3115 3113 3112 3111 3112 3111 3112 3112 3114 3114 3115 3115 3115 3116 3118 3121 3125 3127 3128 3129 3131 3134 3136 3138 3140 3141 3142 3142 3142 3143 3144 3143 3144 3145 3146 3146 3146 3146 3145 3144 3143 3142 3142 3141 3140 3140 3138
3114 3111 3109 3107 3106 3106 3105 3105 3108 3105 3107 3107 3109 3111 3110 3110 3112 3114 3117 3120 3122 3123 3125 3128 3130 3133 3134 3135 3137 3137 3138 3138 3138 3140 3140 3140 3142 3142 3141 3141 3141 3140 3140 3139 3137 3137 3136 3135 3134
3107 3105 3104 3103 3101 3099 3100 3097 3097 3098 3102 3101 3102 3104 3105 3106 3105 3108 3112 3114 3116 3117 3119 3121 3124 3126 3128 3129 3131 3132 3132 3133 3133 3134 3135 3136 3136 3137 3137 3137 3137 3136 3135 3134 3133 3132 3131 3130 3129
3102 3102 3098 3099 3096 3096 3094 3092 3094 3092 3093 3093 3095 3096 3098 3099 3101 3103 3105 3108 3109 3111 3113 3114 3117 3119 3121 3123 3125 3126 3127 3127 3128 3129 3130 3130 3131 3132 3132 3132 3132 3131 3130 3129 3128 3127 3127 3126 3125
3097 3093 3093 3093 3094 3092 3089 3087 3088 3086 3085 3086 3088 3089 3090 3093 3094 3096 3100 3102 3103 3104 3106 3108 3111 3113 3115 3117 3118 3119 3121 3121 3122 3123 3124 3125 3126 3126 3127 3127 3127 3126 3125 3125 3124 3123 3121 3120 3119
3087 3088 3088 3086 3089 3084 3083 3081 3083 3083 3082 3081 3081 3081 3082 3085 3089 3092 3092 3094 3095 3096 3099 3101 3104 3106 3107 3109 3110 3112 3113 3114 3115 3116 3117 3118 3120 3121 3121 3121 3121 3121 3120 3119 3118 3117 3116 3115 3114
3084 3083 3081 3081 3081 3080 3078 3074 3076 3077 3076 3074 3073 3075 3074 3077 3084 3083 3085 3085 3085 3088 3091 3093 3095 3097 3099 3101 3103 3105 3107 3108 3109 3110 3111 3112 3113 3114 3114 3115 3115 3115 3115 3114 3113 3112 3111 3110 3108
3078 3076 3074 3075 3075 3073 3071 3066 3068 3068 3067 3067 3065 3066 3066 3069 3071 3072 3074 3077 3079 3080 3082 3085 3087 3090 3092 3094 3096 3098 3100 3101 3102 3103 3104 3105 3106 3107 3108 3108 3109 3109 3109 3108 3108 3107 3106 3104 3103
3072 3070 3070 3069 3070 3066 3064 3057 3057 3057 3057 3057 3056 3057 3060 3059 3061 3063 3065 3068 3070 3072 3074 3077 3079 3082 3085 3086 3088 3090 3092 3092 3093 3094 3096 3098 3099 3100 3101 3101 3102 3103 3102 3102 3102 3101 3099 3098 3096
3063 3069 3066 3065 3066 3059 3059 3049 3050 3051 3050 3050 3049 3048 3050 3052 3055 3057 3057 3059 3062 3063 3065 3068 3071 3073 3075 3077 3080 3083 3085 3086 3087 3088 3089 3090 3091 3092 3093 3094 3095 3095 3095 3095 3095 3094 3093 3091 3089
3054 3063 3062 3060 3058 3057 3053 3052 3043 3044 3043 3043 3043 3043 3043 3044 3044 3046 3048 3051 3053 3054 3057 3059 3061 3063 3066 3068 3071 3075 3076 3077 3077 3079 3080 3081 3083 3085 3086 3087 3087 3088 3088 3089 3088 3088 3086 3085 3083
3054 3055 3056 3055 3054 3043 3044 3046 3035 3035 3034 3035 3033 3033 3032 3032 3033 3036 3038 3040 3042 3044 3046 3047 3049 3052 3055 3057 3061 3064 3067 3068 3069 3071 3073 3074 3075 3076 3078 3080 3080 3081 3081 3081 3081 3080 3079 3078 3076
3047 3049 3047 3045 3042 3022 3030 3032 3031 3031 3029 3028 3027 3027 3027 3027 3028 3029 3032 3034 3034 3034 3035 3037 3039 3041 3044 3047 3051 3055 3058 3059 3061 3063 3064 3065 3067 3069 3071 3072 3073 3073 3073 3073 3073 3072 3071 3070 3068
3042 3041 3037 3029 3020 3018 3026 3021 3021 3023 3023 3023 3022 3020 3022 3022 3023 3024 3025 3026 3027 3027 3028 3028 3028 3031 3032 3036 3041 3045 3048 3051 3053 3054 3054 3056 3058 3060 3062 3063 3064 3065 3066 3065 3065 3064 3063 3062 3061
3039 3036 3038 3032 3029 3029 3023 3019 3019 3019 3019 3019 3019 3018 3018 3018 3017 3018 3018 3019 3020 3020 3020 3020 3020 3021 3021 3024 3030 3034 3038 3042 3043 3045 3046 3047 3049 3050 3052 3054 3055 3057 3057 3057 3057 3056 3055 3054 3053
3032 3030 3030 3028 3021 3014 3004 3006 3006 3012 3015 3016 3015 3015 3013 3013 3012 3011 3011 3012 3014 3013 3014 3014 3014 3014 3014 3016 3018 3023 3028 3032 3033 3036 3037 3039 3040 3042 3044 3046 3047 3047 3048 3049 3048 3048 3047 3046 3045
3028 3026 3025 3022 3018 3010 2999 2995 3000 3004 3008 3011 3011 3009 3008 3006 3007 3007 3007 3008 3007 3006 3006 3006 3007 3006 3006 3007 3007 3010 3016 3020 3022 3026 3027 3029 3030 3033 3034 3035 3035 3038 3040 3040 3040 3040 3038 3038 3037
3028 3024 3022 3023 3022 3021 3018 3003 3001 3000 3002 3005 3003 3002 3003 3004 3004 3003 3002 3002 3002 3002 3002 3000 2999 2998 2997 2998 2997 2999 3003 3008 3011 3015 3016 3018 3020 3019 3019 3020 3025 3029 3031 3032 3032 3031 3030 3029 3028